Home   Weather   Huddersfield   Past weeks

Flag for United Kingdom Past Weather in Huddersfield, England, United Kingdom — Yesterday and Last 2 Weeks

Now
34 °F

Fog.


Feels Like: 34 °F
Forecast: 31 / 41 °F
Wind: 2 mph from North

Location: Leeds And Bradford

Current Time: Jan 21, 2017 at 6:41:35 am

Latest Report: Jan 21, 2017 at 5:50 am


Visibility: 1 mi

Pressure: 30.42 "Hg

Humidity: 100%

Dew Point: 34 °F

Location of HuddersfieldLocation

Past Weather in Huddersfield — Graph

°F

Huddersfield Temperature Yesterday

Maximum temperature yesterday: 43 °F (at 12:20 pm)
Minimum temperature yesterday: 34 °F (at 7:50 pm)
Average temperature yesterday: 39 °F

High & Low Weather Summary for the Past Weeks

 TemperatureHumidityPressure
High50 °F (Jan 11, 2:50 am)100% (Jan 6, 1:20 pm)30.63 "Hg (Jan 6, 1:20 pm)
Low30 °F (Jan 12, 7:50 pm)70% (Jan 11, 9:50 pm)29.39 "Hg (Jan 12, 4:20 pm)
Average41 °F93%30.15 "Hg
* Reported Jan 6 5:20 am — Jan 21 5:20 am, Huddersfield, Weather by CustomWeather, © 2017

Note: Actual official high and low records may vary slightly from our data, if they occured in-between our weather recording intervals... More about our weather records

Advertising

Huddersfield Weather History for the Previous 24 Hours

Scroll right to see more
 ConditionsComfort  
Time TempWeatherWind HumidityBarometerVisibility
5:20 am
Sat, Jan 21
34 °FFog.2 mph100%30.42 "Hg0 mi
4:50 am34 °FFog.2 mph100%30.45 "Hg0 mi
4:20 am34 °FFog.3 mph100%30.45 "Hg0 mi
3:50 am34 °FFog.2 mph100%30.45 "Hg1 mi
3:20 am34 °FFog.2 mph100%30.45 "Hg1 mi
2:50 am34 °FFog.3 mph100%30.45 "Hg1 mi
2:20 am34 °FFog.2 mph100%30.45 "Hg1 mi
1:50 am34 °FFog.2 mph100%30.45 "Hg1 mi
1:20 am34 °FFog.3 mph100%30.48 "Hg1 mi
12:50 am34 °FFog.2 mphN/A30.48 "Hg0 mi
12:20 am34 °FFog.2 mph100%30.48 "Hg0 mi
11:50 pm
Fri, Jan 20
34 °FFog.2 mph100%30.48 "Hg0 mi
11:20 pm34 °FFog.2 mph100%30.48 "Hg0 mi
10:50 pm34 °FFog.1 mph100%30.51 "Hg1 mi
10:20 pm34 °FFog.1 mph100%30.51 "Hg0 mi
9:50 pm34 °FFog.2 mph100%30.51 "Hg2 mi
9:20 pm34 °FFog.2 mph100%30.51 "Hg4 mi
8:50 pm34 °FClear.3 mph100%30.51 "Hg4 mi
8:20 pm34 °FClear.5 mph100%30.51 "Hg6 mi
7:50 pm34 °FClear.5 mph100%30.51 "Hg6 mi
7:20 pm36 °FClear.5 mph93%30.51 "Hg10 mi
6:50 pm36 °FClear.5 mph93%30.51 "Hg10 mi
6:20 pm36 °FClear.5 mph93%30.51 "Hg10 mi
5:50 pm36 °FClear.6 mph100%30.51 "Hg10 mi
5:20 pm36 °FClear.3 mph100%30.51 "Hg10 mi
4:50 pm37 °FClear.5 mph93%30.51 "Hg10 mi
4:20 pm37 °FSunny.5 mph93%30.51 "Hg10 mi
3:50 pm39 °FSunny.6 mph93%30.51 "Hg10 mi
3:20 pm41 °FSunny.5 mph87%30.51 "Hg10 mi
2:50 pm41 °FSunny.5 mph87%30.51 "Hg10 mi
2:20 pm43 °FPassing clouds.5 mph81%30.51 "HgN/A
1:50 pm43 °FPassing clouds.6 mph81%30.51 "HgN/A
1:20 pm43 °FPassing clouds.6 mph81%30.51 "HgN/A
12:50 pm41 °FScattered clouds.6 mph87%30.54 "HgN/A
12:20 pm43 °FScattered clouds.6 mph81%30.54 "HgN/A
11:50 am41 °FBroken clouds.7 mph87%30.54 "HgN/A
11:20 am41 °FBroken clouds.6 mph93%30.54 "Hg5 mi
10:50 am41 °FLow clouds.6 mph93%30.57 "Hg5 mi
10:20 am41 °FPartly sunny.5 mph93%30.57 "Hg4 mi
9:50 am41 °FFog.5 mph93%30.57 "Hg2 mi
9:20 am41 °FFog.2 mph100%30.57 "Hg2 mi
8:50 am41 °FFog.2 mph93%30.54 "Hg2 mi
8:20 am39 °FFog.2 mph100%30.54 "Hg2 mi
7:50 am39 °FOvercast.1 mph100%30.54 "Hg5 mi
7:20 am39 °FOvercast.1 mph100%30.54 "Hg6 mi
6:50 am41 °FOvercast.1 mph93%30.54 "Hg6 mi
6:20 am41 °FOvercast.1 mph93%30.54 "Hg6 mi
Weather by CustomWeather, © 2017

See weather overviewHow to use our weather pages